Location: Deuil
(48.9767°N, 2.3272°E)
Time: 03:05:01
(UTC+00:00)

Cosmos 2360 Rocket - Pass Details

Date: 28 May 2022
Orbit: 832 x 846 km, 71.0° (Epoch: 03 July)

Event Time Altitude Azimuth Distance (km) Brightness Sun altitude
Exits shadow 21:08:28 15° 142° (SE) 2,138 3.6 -11.0°
Maximum altitude 21:11:33 23° 101° (ESE) 1,734 3.4 -11.3°
Drops below altitude 10° 21:15:49 10° 52° (NE) 2,464 4.7 -11.7°
Sets 21:18:44 0° 38° (NE) 3,407 5.6 -12.0°
